Index of /images/thumbnails/170/205/detailed/1441

 NameLast modifiedSizeDescription

 Parent Directory   -  
 Î‘νώνυμο_σχÎ..>2026-08-29 12:54 16K 
 Î Î¿Î´ÏŒÏƒÎ±ÎºÎ¿Î¹_n..>2026-08-28 03:48 16K 
 01_bag_esploso_3.jpg 2026-08-29 12:54 12K 
 02_bag_esploso_topvi..>2026-08-29 12:54 17K 
 03_bag_disegni-color..>2026-08-29 12:54 13K 
 04_bag_colorazione_1..>2026-08-29 12:54 18K 
 05_disegni_lisa.jpg 2026-08-27 15:16 12K 
 06_bag_snowflakes.jpg 2026-08-29 12:54 13K 
 07_bag_scatola_3.jpg 2026-08-29 12:54 13K 
 08_bag_scatola_retro..>2026-08-29 12:54 14K 
 1_vrpo-jv.png 2026-09-02 14:46 7.5K 
 2_m975-9v.png 2026-09-02 14:46 7.8K 
 2_tdk3-pg.jpg 2026-08-28 03:48 20K 
 3_kt46-md.png 2026-09-02 14:46 25K 
 3_zwg8-zm.jpg 2026-08-28 03:48 10K 
 5_anqg-jm.png 2026-08-27 14:54 40K 
 6_jelt-xj.jpg 2026-08-28 03:48 16K 
 7_pglm-jf.jpg 2026-08-28 03:48 16K 
 11_y9w8-4w_45fo-uj.jpg 2026-08-29 12:54 14K 
 14_wxav-ch.jpg 2026-08-28 03:48 18K 
 15_t09e-80.jpg 2026-08-28 03:48 14K 
 16_kjyz-2l.jpg 2026-08-28 03:48 20K 
 790-Termometr-elektr..>2026-08-27 16:24 7.5K 
 2024-753275327543274..>2026-08-28 14:22 3.3K 
 2024_695326-57327-58..>2026-08-28 14:22 4.3K 
 2024_698768-778-6762..>2026-08-28 14:22 3.9K 
 2024_698542354378-78..>2026-08-28 14:22 3.8K 
 2024_69427452573275_..>2026-08-28 14:22 4.6K 
 16646.jpg 2026-08-27 16:12 9.5K 
 16646_ebx1-i6.jpg 2026-08-27 16:12 9.5K 
 16647.jpg 2026-08-27 16:12 15K 
 16647_2c1s-np.jpg 2026-08-27 16:12 15K 
 16648.jpg 2026-08-27 16:12 7.8K 
 16648_d7wz-8t.jpg 2026-08-27 16:12 7.8K 
 16649.jpg 2026-08-27 16:12 11K 
 16649_ar7m-rz.jpg 2026-08-27 16:12 11K 
 16651.jpg 2026-08-27 16:12 11K 
 16651_irge-08.jpg 2026-08-27 16:12 11K 
 16652.jpg 2026-08-27 16:12 17K 
 16652_lyur-nn.jpg 2026-08-27 16:12 17K 
 16753.jpg 2026-08-29 12:54 14K 
 16754.jpg 2026-08-29 12:54 21K 
 16755.jpg 2026-08-29 12:54 17K 
 16756.jpg 2026-08-29 12:54 20K 
 16757.jpg 2026-08-29 12:54 21K 
 16758.jpg 2026-08-29 12:54 19K 
 16759.jpg 2026-08-27 15:16 12K 
 16760.jpg 2026-08-29 12:54 10K 
 16761.jpg 2026-08-29 12:54 10K 
 16762.jpg 2026-08-29 12:54 13K 
 52354-3245-324534565..>2026-08-28 14:22 5.4K 
 53254-3245-324534553..>2026-08-28 14:22 6.3K 
 53543-543-5434534_bb..>2026-08-28 14:22 6.9K 
 98756-63494-6543-852..>2026-08-27 20:15 15K 
 202495-7865785-768-7..>2026-08-28 14:22 3.1K 
 453245-3245-32453434..>2026-08-28 14:22 8.6K 
 453245-3245-32453434..>2026-08-28 14:22 8.6K 
 9879864-65213254_4xp..>2026-08-28 14:22 6.0K 
 9879864-65213254_9re..>2026-08-28 14:22 6.0K 
 9879864-65213254_k6w..>2026-08-28 13:43 6.0K 
 9879864-65213254_rcp..>2026-08-28 13:45 6.0K 
 20249573-78-62573275..>2026-08-28 14:22 2.7K 
 2024956538-4863-8_mi..>2026-08-28 14:22 3.2K 
 20249639786-378-6525..>2026-08-28 14:22 4.7K 
 Berries__2__0rop-f7.jpg2026-08-27 17:26 6.2K 
 Berries__2__6mel-lw.jpg2026-08-27 17:26 6.2K 
 Berries__2__9iaw-9c.jpg2026-08-27 17:26 6.2K 
 Berries__2__duru-sj.jpg2026-08-27 17:26 6.2K 
 Berries__2__kcbb-c5.jpg2026-08-27 15:05 6.2K 
 Berries__2__ulqd-3f.jpg2026-08-27 17:26 6.2K 
 Croco__1_.jpg 2026-08-27 17:26 7.4K 
 Croco__1__2sim-qp.jpg 2026-08-27 17:26 7.4K 
 Croco__1__5bow-px.jpg 2026-08-27 15:05 7.4K 
 Croco__1__6ite-w7.jpg 2026-08-27 17:26 7.4K 
 Croco__1__82nl-mk.jpg 2026-08-27 17:26 7.4K 
 Croco__1__f293-fc.jpg 2026-08-27 17:26 7.4K 
 Croco__1__mvua-48.jpg 2026-08-27 17:26 7.4K 
 Croco__1__xnuv-8z.jpg 2026-08-27 17:26 7.4K 
 DSC_7708_mjc0-bz.jpg 2026-08-28 14:22 6.9K 
 DSC_7721_ra8q-en.jpg 2026-08-28 14:22 9.0K 
 DSC_7721_shav-9e.jpg 2026-08-28 14:22 9.0K 
 DSC_9522_1jfc-nr.jpg 2026-08-28 14:22 8.9K 
 DSC_9523_s6cw-mp.jpg 2026-08-28 14:22 7.1K 
 DSC_9527_p845-my.jpg 2026-08-28 14:22 8.5K 
 DSC_9528_a62x-6d.jpg 2026-08-28 14:22 6.8K 
 DSC_9529_1h4v-lv.jpg 2026-08-28 14:22 6.9K 
 DSC_9534_0gyk-4o.jpg 2026-08-28 14:22 5.0K 
 DSC_9609_1b9e-dm.jpg 2026-08-28 14:22 6.0K 
 DSC_9609_56rg-lv.jpg 2026-08-28 13:43 6.0K 
 DSC_9609_dngt-cf.jpg 2026-08-28 14:22 6.0K 
 DSC_9609_haqp-om.jpg 2026-08-28 13:45 6.0K 
 DSC_9610_8gb1-k4.jpg 2026-08-28 13:43 8.2K 
 DSC_9610_dhtn-r4.jpg 2026-08-28 14:22 8.2K 
 DSC_9610_n30d-3b.jpg 2026-08-28 14:22 8.2K 
 DSC_9610_rl1u-0h.jpg 2026-08-28 13:45 8.2K 
 DSC_9611_7li6-gp.jpg 2026-08-28 14:22 9.7K 
 DSC_9611_71w8-cm.jpg 2026-08-28 13:45 9.7K 
 DSC_9611_azqc-fg.jpg 2026-08-28 14:22 9.7K 
 DSC_9611_g0l9-de.jpg 2026-08-28 13:43 9.7K 
 DSC_9613_0u3v-1u.jpg 2026-08-28 13:45 7.5K 
 DSC_9613_dmc8-24.jpg 2026-08-28 13:43 7.5K 
 DSC_9613_qsuq-q0.jpg 2026-08-28 14:22 7.5K 
 DSC_9613_ztua-9z.jpg 2026-08-28 14:22 7.5K 
 DSC_9614_dtdi-61.jpg 2026-08-28 13:45 7.9K 
 DSC_9614_ecc5-ut.jpg 2026-08-28 13:43 7.9K 
 DSC_9614_uuu5-rz.jpg 2026-08-28 14:22 7.9K 
 DSC_9614_zwd3-2j.jpg 2026-08-28 14:22 7.9K 
 DSC_9619_9tow-c3.jpg 2026-08-28 14:22 6.6K 
 DSC_9619_bsuk-9v.jpg 2026-08-28 14:22 6.6K 
 DSC_9619_f5go-z4.jpg 2026-08-28 13:43 6.6K 
 DSC_9619_gbw5-oi.jpg 2026-08-28 13:45 6.6K 
 DSC_9621_4zdy-ub.jpg 2026-08-28 14:22 5.9K 
 DSC_9621_gtuo-1x.jpg 2026-08-28 13:43 5.9K 
 DSC_9621_jhdg-s9.jpg 2026-08-28 13:45 5.9K 
 DSC_9621_wuqe-ht.jpg 2026-08-28 14:22 5.9K 
 DSC_9624_1d83-ii.jpg 2026-08-28 14:22 6.1K 
 DSC_9624_3jkb-6d.jpg 2026-08-28 14:22 6.1K 
 DSC_9624_6eeh-hi.jpg 2026-08-28 13:45 6.1K 
 DSC_9624_6gel-9s.jpg 2026-08-28 13:43 6.1K 
 DSC_9631_2ctd-ua.jpg 2026-08-28 14:22 4.2K 
 DSC_9631_nap3-sd.jpg 2026-08-28 14:22 4.2K 
 DSC_9632_8619-0t.jpg 2026-08-28 14:22 6.5K 
 DSC_9632_kzb4-n5.jpg 2026-08-28 14:22 6.5K 
 DSC_9634_0jii-to.jpg 2026-08-28 14:22 7.6K 
 DSC_9634_csix-t8.jpg 2026-08-28 14:22 7.6K 
 DSC_9636_4kjo-ev.jpg 2026-08-28 14:22 6.3K 
 DSC_9636_kljy-kg.jpg 2026-08-28 14:22 6.3K 
 DSC_9638_ehdg-x5.jpg 2026-08-28 14:22 7.1K 
 DSC_9638_hcv3-cx.jpg 2026-08-28 14:22 7.1K 
 DSC_9641_3bq4-g7.jpg 2026-08-28 14:22 4.8K 
 DSC_9641_519f-oe.jpg 2026-08-28 14:22 4.8K 
 DSC_9642_d4kg-ui.jpg 2026-08-28 14:22 3.9K 
 DSC_9642_gwcv-iz.jpg 2026-08-28 14:22 3.9K 
 DSC_9649_t4co-e4.jpg 2026-08-28 14:22 4.7K 
 DSC_9649_ypvg-lo.jpg 2026-08-28 14:22 4.7K 
 FR-RC10-01__1_.jpg 2026-08-27 17:26 12K 
 FR-RC10-01__1__9yj3-..>2026-08-27 17:26 12K 
 FR-RC10-01__1__64rb-..>2026-08-27 17:26 12K 
 FR-RC10-01__1__ek2y-..>2026-08-27 17:26 12K 
 FR-RC10-01__1__ouh3-..>2026-08-27 17:26 12K 
 FR-RC16-01.jpg 2026-08-27 17:26 7.6K 
 FR-RC16-01_0mea-77.jpg 2026-08-27 17:26 7.6K 
 FR-RC16-01_3fy0-rh.jpg 2026-08-27 17:26 7.6K 
 FR-RC16-01_c2v6-xp.jpg 2026-08-27 17:26 7.6K 
 FR-RC16-01_kzcb-g4.jpg 2026-08-27 17:26 7.6K 
 FR-RC29-01__1_.jpg 2026-08-27 15:05 6.7K 
 FR-RC29-01__1__kssr-..>2026-08-27 17:26 6.7K 
 FR-RC29-01__1__r3j8-..>2026-08-27 17:26 6.7K 
 FR-RC29-01__1__rjug-..>2026-08-27 17:26 6.7K 
 FR-RC29-01__1__rqkf-..>2026-08-27 17:26 6.7K 
 FR-RC30-01.jpg 2026-08-27 15:05 6.9K 
 FR-RC30-01_0h8k-5j.jpg 2026-08-27 17:26 6.9K 
 FR-RC30-01_7ckd-qu.jpg 2026-08-27 17:26 6.9K 
 FR-RC30-01_aurz-s5.jpg 2026-08-27 17:26 6.9K 
 FR-RC30-01_dwzm-e7.jpg 2026-08-27 17:26 6.9K 
 FR-RP10-05.jpg 2026-08-27 15:05 5.9K 
 FR-RP16-05.jpg 2026-08-27 15:05 5.1K 
 FR-RP29-05.jpg 2026-08-27 17:26 4.7K 
 FR-RST10-01__4_.jpg 2026-08-27 17:26 9.3K 
 FR-RST10-01__4__40er..>2026-08-27 17:26 9.3K 
 FR-RST10-01__4__y5j1..>2026-08-27 17:26 9.3K 
 FR-RST16-01__1_.jpg 2026-08-27 17:26 6.1K 
 FR-RST16-01__1__038m..>2026-08-27 17:26 6.1K 
 FR-RST16-01__1__8hhm..>2026-08-27 17:26 6.1K 
 FR-RST29-02.jpg 2026-08-27 17:26 4.6K 
 FR-RST29-02_czcp-gv.jpg2026-08-27 17:26 4.6K 
 FR-RST29-02_tf2s-wj.jpg2026-08-27 17:26 4.6K 
 FR-RST30-01__3_.jpg 2026-08-27 17:26 5.7K 
 FR-RST30-01__3__ebu8..>2026-08-27 15:05 5.7K 
 FR-RST30-01__3__fp70..>2026-08-27 17:26 5.7K 
 blue.jpg 2026-08-27 14:54 6.6K 
 blue__1_.jpg 2026-09-05 10:52 6.8K 
 blue__2_.jpg 2026-09-05 10:52 7.6K 
 dupa_foxes.jpg 2026-09-01 08:07 17K 
 ezpz_toothbrush_temp..>2026-09-02 14:46 7.3K 
 funny.JPG 2026-08-27 18:04 10K 
 pewter.png 2026-08-27 14:54 13K 
 pewter_9spe-fo.png 2026-09-02 14:46 48K 
 pewter__1_.jpg 2026-09-05 10:52 5.4K 
 pink.jpg 2026-08-27 14:54 5.3K 
 siplhouete_dupa.jpg 2026-09-01 08:07 9.1K